User: anonymous   Login
Location: Unspecified
(0.0000°N, 0.0000°E)
Time: 06:51:22
(UTC+00:00)
Language:

KUIPER-00039 - Orbit

View from above orbital plane
View from above orbital plane
View from above satellite
View from above satellite

Ground track
Ground track

The orbit is defined by the following mean orbital elements,

1 64500U          26145.00653775 +.00000000 +00000-0 +22706-3 0 00009
2 64500  51.9001 255.6295 0000357 113.8412 246.2588 14.79936619    02
Epoch (UTC): 25 May 2026 00:09:24
Eccentricity: 0.0000357
inclination: 51.9001°
perigee height: 629 km
apogee height: 630 km
right ascension of ascending node: 255.6295°
argument of perigee: 113.8412°
revolutions per day: 14.79936619
mean anomaly at epoch: 246.2588°

The dashed part of the orbit path shows where the satellite is in the earth's shadow,  

DLR